Theta_e
299 300 299 299 299 298 298 298 298 298 298 298 298 298 298 297 297 294 288 291 287 282 281 282 282 279 279 280 274 277 276 276 275 269 268 266 269 271 270 272 271 270 266 267 270 265 265 280 279 274 280 285 284 284
299 299 299 299 299 298 298 298 298 298 297 297 298 297 297 297 297 296 288 290 292 285 283 287 286 286 284 283 279 279 276 277 276 273 273 271 269 270 271 266 276 269 272 266 268 272 280 280 280 280 281 279 282 283
299 299 299 299 299 298 298 298 298 298 297 297 297 297 297 297 297 295 289 291 288 280 280 281 281 286 289 287 287 278 281 281 279 280 276 275 270 274 269 270 272 274 276 272 273 275 277 278 280 281 281 280 282 282
299 299 299 299 299 298 298 298 297 297 297 297 297 297 296 296 296 295 289 289 287 281 275 276 286 283 288 288 287 287 284 284 282 280 276 274 271 277 273 273 272 274 275 273 273 275 276 277 278 279 281 282 282 282
299 299 299 298 298 298 297 297 297 297 297 297 296 295 295 295 294 291 287 287 288 281 271 274 280 282 284 285 284 284 283 282 280 277 275 273 276 276 276 276 273 276 274 271 271 276 275 276 278 280 279 280 281 281
298 298 298 298 298 297 296 296 296 296 295 294 295 295 294 294 293 284 277 280 284 286 278 270 279 280 280 281 280 280 281 280 280 276 275 276 279 277 272 270 277 278 278 279 276 279 278 279 280 281 280 281 282 282
298 298 298 297 296 295 294 294 294 294 294 294 293 293 292 291 285 280 276 280 288 285 276 270 267 276 282 280 278 278 280 280 278 276 274 275 275 277 273 269 276 279 280 280 280 280 277 279 278 281 281 282 284 284
298 297 296 297 296 294 293 293 293 293 293 292 292 291 291 291 288 279 284 289 288 276 277 271 271 272 278 273 272 276 276 277 274 273 272 274 276 275 270 275 278 279 279 279 279 280 280 281 281 281 282 282 281 280
297 296 295 294 294 293 293 293 292 292 291 290 290 290 282 278 268 276 287 289 286 280 272 269 263 265 275 274 273 273 276 268 275 270 272 272 272 270 275 277 277 279 278 278 280 280 280 279 280 280 281 281 280 280
295 294 293 293 292 292 291 291 290 290 290 289 282 272 266 272 286 287 277 267 275 278 276 271 275 270 273 272 270 269 269 266 260 269 273 269 270 276 277 278 279 279 279 279 277 277 278 278 279 280 280 281 281 281
293 292 292 291 291 290 290 289 289 289 286 274 267 266 275 284 275 267 265 261 263 263 270 274 274 272 277 271 271 275 269 267 264 266 267 264 267 274 277 277 279 279 280 279 280 280 280 280 280 280 280 281 281 281
292 292 291 290 290 289 288 288 288 279 277 278 278 280 273 273 266 265 262 265 268 268 274 271 272 274 274 278 272 273 270 271 266 273 269 264 271 275 276 277 278 278 278 279 280 280 280 281 282 282 282 281 281 282
290 290 289 289 288 289 288 288 288 287 284 275 269 265 265 262 258 259 253 262 265 271 273 272 270 273 274 275 271 269 263 261 272 261 262 268 275 276 277 277 276 279 281 282 282 282 282 282 282 281 280 281 281 282
289 288 288 288 288 288 288 288 287 283 279 273 270 261 260 254 260 265 267 269 272 271 272 272 270 267 270 267 271 262 267 269 257 257 264 271 274 276 277 280 280 280 280 280 280 280 279 279 279 280 281 282 281 281
288 287 288 287 287 287 287 287 287 278 268 262 263 258 261 269 269 269 268 270 272 273 272 269 269 271 268 262 269 267 260 256 266 266 271 274 277 277 277 277 277 278 278 278 278 278 279 279 279 280 281 281 282 282
288 287 283 287 287 287 287 285 282 273 263 263 263 265 269 267 267 269 270 269 273 271 271 267 264 258 259 265 258 262 265 263 267 271 274 275 275 275 276 277 277 278 277 278 278 279 279 279 279 280 281 282 283 283
287 277 285 286 287 287 287 281 277 273 269 258 264 270 270 270 268 270 271 272 275 270 265 268 263 264 267 262 264 268 265 268 271 273 273 274 274 274 276 277 277 277 277 277 278 278 279 281 282 281 279 281 282 282
280 280 286 286 285 283 278 273 275 273 266 264 265 269 271 272 271 272 273 273 270 271 271 268 271 266 264 263 265 269 271 272 273 273 274 275 275 276 277 276 277 277 277 278 278 279 280 281 280 279 279 280 281 282
280 281 285 287 282 277 274 275 270 263 266 269 271 273 273 273 274 274 274 275 275 276 274 272 268 265 267 271 271 272 273 273 272 273 274 275 276 276 276 277 277 277 278 278 279 280 280 280 280 280 280 281 281 283
286 286 286 286 284 277 270 271 276 266 265 269 273 271 271 271 274 274 274 274 273 269 270 269 269 271 272 275 276 276 276 276 274 273 273 275 276 276 277 277 277 278 278 280 280 279 279 279 280 281 281 281 281 281
282 281 284 278 271 274 272 266 270 268 268 269 272 271 269 272 272 272 272 274 267 270 271 274 274 275 277 277 278 278 278 278 276 275 274 274 277 278 278 279 279 279 278 277 277 277 278 278 279 281 281 281 282 284
278 284 273 280 277 276 273 274 269 266 266 271 270 271 268 263 266 270 274 270 270 274 276 275 275 275 274 274 275 276 276 275 276 276 276 276 275 275 276 277 277 276 276 276 277 277 277 279 280 281 281 281 282 283
283 278 273 276 268 264 266 274 267 270 261 266 269 267 266 266 270 274 266 272 274 278 278 276 276 276 274 275 275 275 275 274 273 274 274 275 275 276 275 276 276 276 275 277 278 278 278 279 280 280 280 282 283 285
284 270 269 268 266 260 270 263 270 270 265 262 264 260 266 265 270 264 266 270 274 277 276 275 274 273 273 273 272 273 274 274 273 274 274 273 273 273 275 275 276 276 277 277 277 277 278 278 279 280 281 282 284 283
266 265 265 258 264 263 259 262 260 262 257 262 258 258 264 264 258 258 264 265 267 270 272 273 272 272 270 271 272 272 274 273 272 271 272 273 273 273 273 274 275 276 277 276 275 276 277 278 280 280 282 284 284 278
259 260 261 262 258 260 262 256 264 265 260 257 259 262 263 256 255 260 263 267 267 267 271 270 270 269 270 271 269 269 270 273 272 270 271 273 273 272 271 271 272 273 278 278 278 277 278 279 280 281 284 284 284 282
257 259 269 274 272 272 264 265 269 261 256 255 256 258 255 256 255 262 266 270 270 272 273 272 272 270 269 269 270 271 271 272 271 271 273 273 273 273 273 271 271 275 279 279 279 279 279 280 281 284 284 284 284 285
266 268 260 263 266 270 258 256 256 257 257 263 262 257 257 257 260 269 266 272 272 272 272 272 272 271 270 269 270 270 270 271 271 272 273 274 276 277 280 279 278 278 278 279 280 282 283 284 284 284 283 283 283 286
263 270 270 258 256 261 260 261 260 264 268 262 257 257 262 269 268 270 272 270 271 270 268 268 268 269 269 269 269 270 270 270 268 266 267 268 271 275 281 284 284 284 283 283 283 283 284 284 284 283 283 283 284 285
261 271 262 254 256 260 262 268 263 265 268 266 264 268 269 268 267 269 267 269 268 267 268 268 267 267 265 265 265 266 269 270 270 269 267 268 271 277 278 283 283 283 283 283 283 283 283 282 281 280 279 279 279 279
269 261 259 257 257 262 263 258 258 260 256 256 257 264 265 264 265 267 265 268 269 269 267 266 266 266 265 265 265 264 264 269 272 272 273 275 279 280 280 280 282 282 281 281 281 279 278 278 277 276 276 276 276 276
257 258 258 258 259 261 258 256 253 254 254 258 261 257 261 261 260 263 266 270 268 267 266 266 264 264 266 267 268 269 270 271 275 278 280 280 279 279 279 278 279 280 279 279 278 278 277 276 276 275 275 274 274 274
255 253 252 253 257 258 256 258 255 256 254 256 258 257 258 260 261 266 269 270 268 267 266 265 266 267 267 269 270 272 276 278 278 278 277 277 277 278 277 277 277 276 275 275 274 274 273 273 272 272 272 272 272 272
Wind_Speed
21 20 19 18 18 19 19 18 18 18 18 17 17 16 16 15 14 6 4 6 4 5 9 12 11 10 7 6 9 3 4 4 1 3 4 5 5 6 9 9 5 5 3 2 3 5 10 6 8 5 2 3 7 9
20 19 18 17 18 19 19 19 19 19 18 18 18 17 16 17 16 11 3 3 5 7 7 6 15 19 23 24 8 7 8 6 4 3 4 2 2 2 8 9 6 7 6 5 8 3 3 7 5 4 4 7 11 4
19 18 18 18 18 19 19 20 19 20 20 19 19 19 18 18 17 12 4 2 3 5 10 12 12 17 14 19 17 12 8 8 5 6 5 5 11 5 9 12 16 10 5 9 11 9 14 4 7 10 13 16 10 7
19 18 18 19 19 19 19 20 20 21 21 21 19 17 16 16 16 14 3 1 2 4 9 10 6 3 7 9 16 15 18 11 7 6 8 7 8 7 10 12 14 11 8 12 15 11 7 12 10 10 10 9 13 14
19 18 19 19 19 18 19 20 20 21 21 23 17 16 17 17 18 9 3 4 8 7 11 13 15 20 20 12 10 12 13 12 8 8 8 12 11 10 12 12 15 13 17 13 13 11 9 8 8 12 14 15 15 19
18 18 19 18 19 14 17 20 14 13 15 14 17 16 17 19 16 3 4 3 5 7 6 6 3 3 5 13 21 21 16 11 8 5 7 10 20 10 7 15 15 17 14 19 19 17 14 14 15 18 20 20 20 18
18 19 18 18 12 12 12 14 13 14 16 17 18 18 17 19 5 4 5 5 3 4 3 6 6 4 4 3 3 4 6 4 6 5 5 10 10 10 13 21 21 11 20 16 16 15 18 16 14 15 17 18 21 20
18 18 17 17 18 13 12 13 15 17 17 18 18 19 21 20 15 6 8 18 13 3 3 5 4 3 4 7 9 4 4 3 4 6 3 6 8 9 12 17 18 16 15 13 13 16 19 21 19 18 17 15 17 17
14 11 10 12 11 13 15 14 15 15 16 20 20 18 6 2 1 5 8 16 5 6 4 4 4 8 1 5 3 2 2 4 4 6 6 4 9 7 5 7 8 12 14 17 18 19 18 19 18 18 17 17 19 18
10 10 10 9 10 11 12 12 16 17 18 17 4 4 4 4 8 13 5 4 2 4 3 4 5 8 2 1 3 2 3 5 2 6 2 7 13 16 15 14 14 13 16 17 16 17 16 15 16 17 17 16 16 16
9 7 10 11 12 12 13 15 15 14 6 4 2 3 5 9 4 4 3 1 3 4 2 2 4 7 3 5 5 4 3 3 3 6 6 3 5 12 15 18 17 16 15 16 17 16 12 12 14 14 14 15 14 14
9 11 11 12 13 13 13 14 12 3 4 5 4 2 4 3 2 0 4 5 4 2 2 3 5 4 4 3 4 4 4 4 5 0 2 3 8 7 8 11 11 8 8 10 9 10 10 12 13 14 16 14 13 14
10 11 12 14 13 14 12 13 14 10 1 4 5 5 4 4 2 3 4 5 3 3 3 5 7 2 4 1 3 4 2 5 3 2 5 5 4 5 5 3 5 4 3 3 9 12 11 13 13 12 14 14 15 16
11 12 13 12 13 11 12 12 9 2 3 2 2 4 4 5 5 5 4 4 5 2 6 7 5 3 3 2 5 2 6 2 3 1 5 1 3 3 4 4 5 7 8 9 10 9 12 12 14 15 15 15 15 17
12 12 11 12 9 11 12 11 4 3 4 2 4 5 7 7 4 4 2 3 7 3 3 4 4 3 4 3 4 4 5 5 5 6 5 5 4 5 7 8 8 10 10 11 12 12 14 15 15 17 16 16 17 17
11 11 4 11 11 11 12 4 2 3 3 3 2 4 4 2 7 5 8 9 5 3 0 1 4 3 6 5 1 8 10 14 10 7 4 3 6 8 9 9 11 12 12 13 13 14 14 15 16 17 18 18 19 19
10 3 6 10 13 13 9 2 2 4 5 3 6 5 8 7 9 9 8 10 3 3 3 3 5 9 2 4 9 8 13 12 10 11 4 7 10 11 11 11 12 14 15 14 15 15 16 16 16 17 21 22 19 21
2 5 11 13 9 2 1 3 3 4 7 5 3 7 4 6 9 10 9 8 2 4 4 5 4 6 6 9 12 14 12 12 8 9 10 12 13 12 11 16 16 16 16 16 16 17 16 17 18 16 20 19 19 19
6 5 11 14 5 2 2 3 4 4 9 3 5 6 6 7 9 11 10 9 8 7 3 3 6 4 6 9 13 12 11 10 12 13 12 15 14 16 17 17 18 18 17 18 16 13 14 18 16 15 15 15 14 14
12 11 9 9 2 2 3 3 3 3 4 5 3 5 4 5 9 8 8 9 4 2 4 5 7 9 11 11 11 12 11 10 11 12 13 13 13 15 16 15 13 16 16 16 15 16 14 14 13 14 13 14 15 16
5 5 8 1 1 3 3 2 3 4 4 4 3 3 5 3 7 8 8 4 2 4 4 3 4 8 9 10 10 10 10 10 10 11 13 14 12 12 13 13 14 13 13 12 13 14 15 14 14 13 14 14 15 15
4 5 2 3 4 3 3 3 4 3 1 4 3 3 3 3 4 4 3 3 4 3 2 3 6 8 11 14 14 14 14 16 15 12 15 15 13 12 12 11 11 13 12 13 12 14 15 13 14 14 13 16 18 16
3 3 1 1 2 2 7 3 1 3 0 4 2 3 4 4 5 3 3 4 2 1 3 4 9 11 13 16 16 16 15 16 12 11 12 11 12 13 13 12 11 13 14 13 11 12 13 18 16 15 15 16 15 12
6 4 4 3 4 5 3 3 3 3 1 2 1 5 5 4 3 2 7 2 2 3 3 9 8 11 12 15 13 13 12 10 11 12 11 12 12 13 12 12 11 11 12 13 12 13 13 14 17 14 15 16 13 7
7 6 5 5 3 1 2 4 4 3 4 4 1 6 5 2 2 4 6 4 3 3 4 7 9 9 13 14 12 13 14 9 9 13 12 11 13 13 13 12 12 12 10 11 12 12 13 12 12 13 15 12 10 1
4 6 7 7 4 5 5 2 3 5 3 3 6 5 4 3 2 7 4 3 3 2 6 8 11 13 12 11 14 13 13 10 10 12 13 10 10 11 13 14 14 14 6 8 10 12 14 13 13 16 11 9 6 6
4 6 5 4 3 2 3 3 1 2 3 5 5 4 4 3 6 7 3 1 2 4 7 8 10 11 13 13 13 13 13 12 12 13 14 14 14 12 12 13 15 12 9 9 9 10 12 13 12 9 6 4 3 4
6 3 6 4 2 3 4 1 2 4 5 3 3 2 4 7 7 6 2 2 5 7 8 9 9 9 11 13 13 13 14 13 14 13 11 11 11 10 12 10 12 20 13 12 11 10 9 7 4 4 4 5 4 6
3 3 3 3 2 1 5 7 6 5 4 4 5 5 6 5 3 2 2 4 5 8 11 12 13 12 12 11 11 10 10 10 13 18 18 12 11 9 8 7 4 4 4 4 5 3 3 4 6 7 9 8 8 9
5 3 3 1 5 5 6 5 5 5 3 4 3 4 4 3 2 1 2 4 9 11 11 11 12 11 12 13 16 19 11 8 8 8 10 12 10 10 11 7 4 3 3 3 3 6 10 10 11 12 14 13 14 16
0 3 3 1 5 5 5 3 3 2 2 2 1 2 4 4 3 1 1 3 7 10 12 14 14 12 13 14 13 15 19 11 15 19 16 11 7 4 5 5 5 5 7 8 9 10 12 13 14 16 19 20 22 20
2 4 5 1 5 5 4 3 2 1 4 3 3 3 5 4 4 3 2 6 9 13 17 16 15 18 18 15 14 12 16 15 14 11 8 5 6 7 7 8 8 9 12 12 12 14 19 19 17 19 21 25 25 26
3 3 2 3 5 6 5 4 5 6 3 3 3 1 2 2 4 3 3 3 5 12 13 15 15 16 19 19 17 16 13 7 12 14 16 15 14 12 9 9 11 14 18 16 17 19 22 27 23 24 24 25 25 25
Wind_Direction
293 292 295 296 294 297 298 299 300 299 299 298 297 297 297 296 297 299 248 188 218 250 251 226 228 247 259 235 251 243 336 237 222 207 190 224 218 217 230 233 251 241 188 225 222 209 243 16 3 36 294 216 281 310
287 290 291 291 291 293 293 294 294 293 293 291 292 290 289 288 292 290 260 194 217 247 269 275 251 240 228 231 232 212 225 189 196 178 208 232 285 238 218 235 192 216 188 199 187 230 253 317 187 250 274 299 286 267
286 288 288 288 288 289 287 289 289 289 288 287 289 287 287 295 291 282 254 214 251 274 277 244 251 249 238 235 225 244 233 225 206 189 229 233 241 189 239 248 246 236 232 237 245 232 247 232 278 286 286 285 250 248
284 284 283 285 287 289 287 288 286 289 285 285 285 282 285 288 291 292 263 182 241 280 268 284 285 263 308 260 233 226 244 259 253 236 231 232 243 193 245 251 232 222 190 230 244 239 272 261 252 254 272 275 292 294
283 284 283 285 288 289 292 291 291 291 288 285 276 297 295 296 294 299 234 203 206 215 274 276 301 280 276 235 243 231 219 225 227 233 232 245 246 247 244 253 241 211 229 226 234 230 234 250 258 262 264 267 264 277
283 284 285 285 292 295 307 299 295 297 301 297 286 290 289 295 303 42 308 302 229 215 247 270 273 295 253 236 240 245 247 234 226 232 235 245 248 245 250 245 254 238 225 228 244 247 246 253 258 262 261 262 263 254
282 281 281 290 285 288 301 308 306 303 302 298 295 300 300 293 293 197 218 227 182 146 244 266 292 261 272 241 204 214 207 212 222 225 224 243 246 230 243 249 253 250 227 227 228 237 252 250 248 248 253 258 262 262
287 289 295 276 270 266 286 292 295 294 302 309 304 299 303 303 298 285 249 264 271 262 247 260 258 279 202 263 265 199 229 196 212 224 222 243 262 218 237 239 242 247 229 220 219 225 237 251 258 256 258 260 259 261
299 315 330 333 321 304 302 311 317 317 306 301 306 317 328 316 24 246 269 279 229 209 229 199 176 262 285 241 228 305 191 219 223 207 227 215 253 235 276 243 235 230 217 230 234 240 245 246 249 252 253 256 257 259
280 295 288 280 285 294 304 304 299 316 316 318 33 47 322 241 274 303 335 2 280 201 225 243 196 240 166 224 253 197 188 209 220 233 165 210 244 240 243 246 243 236 226 228 239 244 239 245 248 251 250 253 255 258
281 283 291 291 294 295 298 304 305 306 35 41 46 219 247 319 33 26 293 116 299 305 244 288 13 309 288 252 253 208 224 222 210 255 164 243 262 238 223 232 240 248 249 244 235 241 250 254 263 264 259 253 248 247
273 282 290 289 293 297 299 305 306 3 185 203 224 326 353 15 358 11 253 301 222 301 70 329 291 273 270 233 248 216 237 196 240 62 235 254 259 269 247 242 249 235 236 244 243 243 248 251 253 253 248 244 245 248
286 288 290 295 294 293 294 299 301 299 87 40 44 24 47 294 327 159 272 301 338 323 270 316 309 237 306 306 271 282 313 241 357 42 222 234 58 28 358 345 328 316 313 292 248 230 225 235 238 240 253 255 253 255
282 286 292 293 293 308 297 296 305 19 61 145 154 273 160 287 246 211 229 228 237 215 290 295 278 244 245 294 235 246 247 44 329 273 234 85 133 191 247 243 236 253 275 278 269 258 255 255 262 261 253 252 255 259
277 289 288 280 296 295 293 297 318 83 107 155 96 230 228 235 256 249 259 311 283 238 266 306 286 216 252 263 233 235 330 249 235 256 237 225 188 256 275 279 277 274 269 270 261 254 259 258 258 257 249 246 253 261
288 288 288 295 285 290 294 346 82 88 49 107 245 260 252 317 269 273 275 274 269 229 286 98 239 354 254 228 309 228 240 244 254 270 265 233 267 277 273 270 264 257 263 266 263 264 261 263 261 258 262 265 272 272
281 182 254 289 290 288 289 132 179 181 184 191 248 225 243 266 256 256 258 260 233 130 221 227 236 223 267 250 248 240 253 261 263 269 242 254 271 276 275 270 265 268 271 272 271 271 265 263 266 275 278 279 279 274
217 242 276 283 286 351 352 157 191 209 225 232 219 248 192 240 264 270 260 258 186 233 239 230 235 226 231 256 266 270 265 271 265 273 283 284 282 267 262 277 278 276 277 273 273 271 268 275 278 279 282 281 281 276
227 247 265 269 250 161 228 218 129 210 231 221 246 253 244 256 255 257 265 268 245 236 221 224 235 235 245 256 266 276 275 264 270 274 274 276 266 277 280 277 275 275 272 273 270 271 276 279 278 278 278 278 275 276
287 291 283 283 216 206 277 258 166 172 249 234 245 255 230 238 265 266 268 264 257 199 215 227 243 273 291 299 298 289 284 265 265 270 268 267 268 270 269 270 270 273 273 276 277 279 282 282 275 275 275 272 270 271
334 260 270 235 16 158 215 200 245 212 244 240 244 215 253 255 263 269 272 261 144 210 237 276 297 276 288 291 293 288 293 290 275 266 269 272 269 267 271 270 272 275 277 280 281 282 280 275 280 280 279 274 273 271
237 272 55 233 212 201 266 219 205 235 199 247 301 214 257 283 272 246 239 191 224 221 159 241 277 300 305 303 299 295 292 293 289 284 282 282 279 276 276 278 285 282 280 277 278 278 277 279 278 279 280 280 279 277
257 116 40 280 37 39 258 139 180 226 192 263 334 292 275 259 244 352 263 232 222 118 235 263 296 303 295 295 295 291 290 292 288 284 284 281 280 280 279 277 274 277 279 275 272 274 277 281 285 284 280 281 280 282
168 138 175 231 160 249 324 280 225 246 329 307 249 277 264 238 306 347 271 230 208 257 272 304 312 304 305 303 298 298 300 300 289 284 281 283 280 279 278 278 273 268 268 277 276 275 278 280 282 282 283 284 291 283
94 259 130 266 283 282 312 296 309 2 255 243 239 275 264 35 318 262 257 265 263 262 297 313 306 306 304 302 301 301 304 297 293 290 285 280 279 280 278 274 273 266 264 265 266 270 273 277 281 284 288 295 301 220
187 246 154 199 245 157 215 222 229 233 220 287 249 267 3 58 13 260 241 245 251 270 320 314 312 306 304 302 302 303 305 304 293 284 287 282 275 275 280 285 292 289 246 247 260 269 277 282 287 292 298 307 334 120
207 254 218 212 219 244 323 299 263 108 253 226 254 333 39 325 259 255 276 345 333 315 306 298 300 299 299 302 299 296 299 297 285 280 287 284 276 264 256 259 264 262 278 269 263 266 276 284 288 299 300 337 3 119
205 198 180 238 210 188 192 232 208 233 243 241 76 315 213 216 250 285 233 331 319 308 304 307 306 303 302 301 298 300 300 299 294 289 281 273 262 269 270 235 240 257 264 269 269 270 270 284 304 342 22 35 50 102
220 249 123 258 283 234 208 197 220 233 213 132 164 251 249 237 242 334 347 323 311 331 326 324 322 321 310 306 300 296 295 299 306 307 306 306 311 305 318 306 300 301 299 295 306 326 36 56 56 61 58 56 69 95
259 165 129 108 150 232 241 189 230 240 228 200 207 296 293 295 212 99 315 343 354 336 324 316 314 317 317 320 318 316 312 296 273 263 279 290 288 297 301 305 316 317 332 357 35 66 70 74 74 70 72 71 76 84
116 73 65 124 224 242 232 279 295 302 0 323 279 182 250 287 318 258 307 319 334 328 329 328 327 330 323 322 321 318 310 314 310 304 288 268 269 326 352 356 18 44 55 60 69 76 80 76 77 80 80 82 84 88
72 170 147 252 279 289 10 41 306 325 318 1 296 344 341 358 312 292 305 353 340 337 335 333 330 325 321 313 304 290 278 283 292 307 343 18 28 35 40 42 48 66 72 74 78 82 83 85 85 85 85 86 87 89
35 50 58 33 346 340 316 24 7 332 338 319 289 235 241 198 263 292 338 31 353 333 325 320 317 315 311 310 306 303 311 346 359 30 47 51 53 58 59 61 69 75 79 79 80 83 84 87 86 86 87 87 85 84